Location: Newark
(37.9128°N, 122.4756°W)
Time: 20:52:37
(UTC+00:00)

ISS - Pass Details

Date: 25 November 2019
Orbit: 411 x 421 km, 51.6° (Epoch: 07 December)

Event Time Altitude Azimuth Distance (km) Brightness Sun altitude
Rises 02:42:13 0° 269° (W) 2,350 1.5 -21.3°
Reaches altitude 10° 02:44:46 10° 290° (WNW) 1,492 -0.1 -21.8°
Maximum altitude 02:47:09 18° 335° (NNW) 1,106 -1.5 -22.2°
Enters shadow 02:47:17 18° 338° (NNW) 1,107 -1.5 -22.2°
